When you browse on this site, cookies collect data to enhance your experience and personalize the content and advertising you see.
Visit our Privacy Policy to learn more. By continuing to use the site, you agree to this use of cookies and data.
  • In Latvia
  • List of Countries
  • For 7 days
  • Water Temperature
  • Weather Map
  • Weather Widgets
  • user-avatar
    Login

    Hourly Weather Lvovka

    Today, 26 May, Tuesday

    Time Temperature Precipitation Wind Pressure Humidity
    00:00 +12°C° 0 mm 2 mps 757 mmHg 68%
    01:00 +12°C° 0 mm 2 mps 758 mmHg 71%
    02:00 +10°C° 0 mm 2 mps 758 mmHg 74%
    03:00 +10°C° 0 mm 2 mps 758 mmHg 81%
    04:00 +12°C° 0 mm 2 mps 758 mmHg 79%
    05:00 +12°C° 0 mm 3 mps 758 mmHg 77%
    06:00 +12°C° 0 mm 3 mps 758 mmHg 76%
    07:00 +14°C° 0 mm 4 mps 757 mmHg 71%
    08:00 +15°C° 0 mm 5 mps 757 mmHg 66%
    09:00 +16°C° 0 mm 7 mps 757 mmHg 61%
    10:00 +17°C° 0 mm 7 mps 756 mmHg 60%
    11:00 +18°C° 0 mm 8 mps 756 mmHg 59%
    12:00 +20°C° 0 mm 8 mps 755 mmHg 58%
    13:00 +20°C° 0 mm 8 mps 755 mmHg 58%
    14:00 +19°C° 0 mm 9 mps 754 mmHg 59%
    15:00 +21°C° 0 mm 8 mps 753 mmHg 60%
    16:00 +20°C° 0 mm 8 mps 752 mmHg 65%
    17:00 +18°C° 0 mm 7 mps 752 mmHg 69%
    18:00 +19°C° 0 mm 6 mps 751 mmHg 74%
    19:00 +17°C° 0.9 mm 6 mps 750 mmHg 78%
    20:00 +16°C° 0.9 mm 6 mps 749 mmHg 82%
    21:00 +15°C° 0.9 mm 5 mps 748 mmHg 86%
    22:00 +15°C° 1.6 mm 6 mps 748 mmHg 88%
    23:00 +15°C° 1.6 mm 6 mps 747 mmHg 91%

    Tomorrow, 27 May, Wednesday

    Time Temperature Precipitation Wind Pressure Humidity
    00:00 +14°C° 1.6 mm 6 mps 747 mmHg 94%
    01:00 +14°C° 0.2 mm 5 mps 746 mmHg 94%
    02:00 +14°C° 0.2 mm 4 mps 746 mmHg 95%
    03:00 +14°C° 0.2 mm 3 mps 746 mmHg 96%
    04:00 +14°C° 0 mm 3 mps 746 mmHg 95%
    05:00 +16°C° 0 mm 3 mps 746 mmHg 94%
    06:00 +16°C° 0 mm 3 mps 746 mmHg 94%
    07:00 +17°C° 0 mm 3 mps 747 mmHg 91%
    08:00 +18°C° 0 mm 4 mps 747 mmHg 88%
    09:00 +19°C° 0 mm 4 mps 747 mmHg 85%
    10:00 +20°C° 0 mm 4 mps 748 mmHg 81%
    11:00 +21°C° 0 mm 4 mps 748 mmHg 78%
    12:00 +22°C° 0 mm 4 mps 749 mmHg 74%
    13:00 +22°C° 0 mm 4 mps 749 mmHg 74%
    14:00 +21°C° 0 mm 5 mps 750 mmHg 74%
    15:00 +21°C° 0 mm 5 mps 750 mmHg 74%
    16:00 +20°C° 0 mm 4 mps 751 mmHg 76%
    17:00 +19°C° 0 mm 4 mps 751 mmHg 78%
    18:00 +19°C° 0 mm 3 mps 751 mmHg 80%
    19:00 +18°C° 0 mm 3 mps 752 mmHg 80%
    20:00 +17°C° 0 mm 3 mps 752 mmHg 81%
    21:00 +17°C° 0 mm 3 mps 752 mmHg 81%
    22:00 +16°C° 0 mm 3 mps 752 mmHg 84%
    23:00 +13°C° 0 mm 3 mps 752 mmHg 87%

    Day after tomorrow, 28 May, Thursday

    Time Temperature Precipitation Wind Pressure Humidity
    00:00 +12°C° 0 mm 3 mps 752 mmHg 90%
    01:00 +12°C° 0 mm 3 mps 753 mmHg 91%
    02:00 +11°C° 0 mm 3 mps 753 mmHg 92%
    03:00 +10°C° 0 mm 3 mps 753 mmHg 94%
    04:00 +11°C° 0 mm 3 mps 753 mmHg 90%
    05:00 +12°C° 0 mm 3 mps 753 mmHg 86%
    06:00 +12°C° 0 mm 4 mps 753 mmHg 82%
    07:00 +14°C° 0 mm 4 mps 754 mmHg 77%
    08:00 +15°C° 0 mm 4 mps 754 mmHg 72%
    09:00 +17°C° 0 mm 4 mps 754 mmHg 67%
    10:00 +18°C° 0 mm 3 mps 754 mmHg 64%
    11:00 +19°C° 0 mm 3 mps 754 mmHg 61%
    12:00 +20°C° 0 mm 3 mps 754 mmHg 58%
    13:00 +20°C° 0 mm 3 mps 754 mmHg 57%
    14:00 +20°C° 0 mm 3 mps 753 mmHg 57%
    15:00 +20°C° 0 mm 3 mps 753 mmHg 57%
    16:00 +20°C° 0 mm 3 mps 753 mmHg 61%
    17:00 +19°C° 0 mm 3 mps 753 mmHg 65%
    18:00 +19°C° 0 mm 2 mps 753 mmHg 69%
    19:00 +17°C° 0 mm 2 mps 753 mmHg 71%
    20:00 +16°C° 0 mm 2 mps 753 mmHg 73%
    21:00 +15°C° 0 mm 2 mps 754 mmHg 76%
    22:00 +14°C° 0 mm 2 mps 754 mmHg 79%
    23:00 +14°C° 0 mm 2 mps 754 mmHg 82%

    29 May, Friday

    Time Temperature Precipitation Wind Pressure Humidity
    00:00 +13°C° 0 mm 2 mps 754 mmHg 84%
    01:00 +13°C° 0 mm 2 mps 754 mmHg 86%
    02:00 +12°C° 0 mm 2 mps 754 mmHg 87%
    03:00 +12°C° 0 mm 2 mps 754 mmHg 88%
    04:00 +13°C° 0 mm 2 mps 754 mmHg 85%
    05:00 +14°C° 0 mm 2 mps 754 mmHg 83%
    06:00 +14°C° 0 mm 3 mps 754 mmHg 80%
    07:00 +16°C° 0 mm 3 mps 754 mmHg 75%
    08:00 +18°C° 0 mm 3 mps 753 mmHg 69%
    09:00 +19°C° 0 mm 3 mps 753 mmHg 64%
    10:00 +20°C° 0 mm 4 mps 753 mmHg 61%
    11:00 +21°C° 0 mm 4 mps 753 mmHg 58%
    12:00 +22°C° 0 mm 4 mps 753 mmHg 55%
    13:00 +23°C° 0 mm 4 mps 752 mmHg 55%
    14:00 +23°C° 0 mm 4 mps 752 mmHg 55%
    15:00 +23°C° 0 mm 4 mps 751 mmHg 55%
    16:00 +23°C° 0 mm 4 mps 751 mmHg 59%
    17:00 +22°C° 0 mm 4 mps 751 mmHg 64%
    18:00 +22°C° 0 mm 3 mps 750 mmHg 68%
    19:00 +20°C° 0 mm 3 mps 750 mmHg 72%
    20:00 +18°C° 0 mm 3 mps 750 mmHg 76%
    21:00 +17°C° 0 mm 3 mps 750 mmHg 79%
    22:00 +16°C° 0 mm 3 mps 750 mmHg 80%
    23:00 +16°C° 0 mm 3 mps 750 mmHg 81%

    30 May, Saturday

    Time Temperature Precipitation Wind Pressure Humidity
    00:00 +14°C° 0 mm 4 mps 749 mmHg 82%
    01:00 +13°C° 0 mm 3 mps 749 mmHg 83%
    02:00 +13°C° 0 mm 3 mps 748 mmHg 83%
    03:00 +12°C° 0 mm 3 mps 748 mmHg 84%
    04:00 +13°C° 0 mm 3 mps 748 mmHg 82%
    05:00 +14°C° 0 mm 3 mps 747 mmHg 80%
    06:00 +16°C° 0 mm 3 mps 747 mmHg 78%
    07:00 +17°C° 0 mm 4 mps 747 mmHg 74%
    08:00 +19°C° 0 mm 4 mps 746 mmHg 70%
    09:00 +21°C° 0 mm 4 mps 746 mmHg 66%
    10:00 +22°C° 0 mm 4 mps 746 mmHg 64%
    11:00 +23°C° 0 mm 4 mps 745 mmHg 63%
    12:00 +26°C° 0 mm 4 mps 745 mmHg 62%
    13:00 +26°C° 0 mm 5 mps 745 mmHg 62%
    14:00 +27°C° 0 mm 5 mps 744 mmHg 63%
    15:00 +27°C° 0 mm 5 mps 744 mmHg 63%
    16:00 +26°C° 0 mm 4 mps 743 mmHg 67%
    17:00 +26°C° 0 mm 4 mps 743 mmHg 71%
    18:00 +26°C° 0 mm 3 mps 742 mmHg 75%
    19:00 +23°C° 0 mm 4 mps 742 mmHg 78%
    20:00 +22°C° 0 mm 4 mps 741 mmHg 81%
    21:00 +21°C° 0 mm 5 mps 740 mmHg 84%
    22:00 +21°C° 0 mm 5 mps 740 mmHg 85%
    23:00 +20°C° 0 mm 4 mps 739 mmHg 86%

    31 May, Sunday

    Time Temperature Precipitation Wind Pressure Humidity
    00:00 +20°C° 0 mm 4 mps 739 mmHg 87%
    01:00 +19°C° 0 mm 4 mps 738 mmHg 86%
    02:00 +19°C° 0 mm 3 mps 738 mmHg 86%
    03:00 +18°C° 0 mm 3 mps 737 mmHg 85%
    04:00 +18°C° 0 mm 4 mps 738 mmHg 86%
    05:00 +19°C° 0 mm 5 mps 738 mmHg 86%
    06:00 +19°C° 0 mm 6 mps 738 mmHg 87%
    07:00 +20°C° 0 mm 6 mps 738 mmHg 85%
    08:00 +20°C° 0 mm 7 mps 738 mmHg 83%
    09:00 +20°C° 0 mm 8 mps 739 mmHg 80%
    10:00 +21°C° 0.1 mm 8 mps 739 mmHg 78%
    11:00 +21°C° 0.1 mm 8 mps 739 mmHg 75%
    12:00 +21°C° 0.1 mm 9 mps 739 mmHg 73%
    13:00 +21°C° 0.1 mm 8 mps 739 mmHg 73%
    14:00 +20°C° 0.1 mm 8 mps 739 mmHg 73%
    15:00 +20°C° 0.1 mm 8 mps 740 mmHg 73%
    16:00 +18°C° 0.2 mm 7 mps 740 mmHg 75%
    17:00 +19°C° 0.2 mm 6 mps 740 mmHg 76%
    18:00 +19°C° 0.2 mm 6 mps 740 mmHg 78%
    19:00 +17°C° 0.9 mm 5 mps 740 mmHg 82%
    20:00 +16°C° 0.9 mm 5 mps 740 mmHg 86%
    21:00 +15°C° 0.9 mm 5 mps 740 mmHg 91%
    22:00 +14°C° 1.1 mm 5 mps 740 mmHg 91%
    23:00 +14°C° 1.1 mm 5 mps 740 mmHg 92%
    Show more